星链-4489 (STARLINK-4489 )

导读 | 星芒AI

STARLINK-4489 是 SpaceX 星链(Starlink)卫星互联网项目中的第4489颗卫星。该卫星属于星链计划的第二代卫星群,旨在为全球用户提供高速、低延迟的互联网服务。它运行在近地轨道,配备先进通信设备,支持宽带数据传输。星链项目通过大规模部署卫星,致力于改善偏远地区的网络接入,同时推动全球互联网覆盖的普及。STARLINK-4489 的发射和运行是该项目持续扩展和优化的重要一环。

基本信息
目录编号:
53542
目录名称:
STARLINK-4489
国际标识:
2022-101R
轨道中心:
EARTH
卫星名称:
星链-4489
卫星全名:
星链-4489 (STARLINK-4489 )
卫星状态:
在轨 (已飞行1220 天)
发射日期:
2022-08-19 UTC
国别 :
美国 (US)
星等 :
--
轨道信息
数据来源 国际轨道数据
星历时间: 2025-12-20T22:31:28+0800
17小时前
查看轨道信息
半长轴: 6917.882km
偏心率: 0.0001344
轨道倾角: 53.218°
近地点辐角 91.891°
升交点赤经 59.147°
平近点角 268.224°
近地点: 538.815km
远地点: 540.675km
周期: 95.438分钟
每日圈数: 15.088397
详细信息
固有亮度:
5
最大亮度:
2.5
卫星平台:
Starlink v1.5
覆盖范围:
全球
运营商:
太空探索技术公司
运营商所在国:
美国
制造商(研发单位):
太空探索技术公司
制造商所在国:
美国
使用方式:
暂无
卫星简介
星链(Starlink)计划是由太空探索技术公司(SpaceX)提出的一个巨型低轨卫星互联网星座项目,计划在2019年至2024年间在太空搭建由约1.2万颗卫星组成的“星链”网络,其中1584颗将部署在地球上空550千米处的近地轨道,并从2020年开始工作。该卫星仍在工作。
2D轨道图
3D轨道图
轨道高度分析图
轨道倾角分析图
轨道综合分析图
查看轨道综合分析图